Starlink 32670

operational
NORAD ID: 62210 Int'l Des: 2024-229 Owner: SPXS Country: US Constellation: starlink
LEOCIRCULAR

About Starlink 32670

Description loading...

Live Position

Loading 3D Globe...

Upcoming Passes

Altitude History

Altitude vs Time

uPlot chart will show altitude changes over time

Two-Line Element Set

1 62210U 24229U 25302.65934529 .00032798 00000-0 11952-2 0 9994
2 62210 43.0015 290.5634 0001298 282.0054 78.0652 15.27603402 50526
Epoch: Oct 29, 2025 • Age: 24 hours

Current Status

Altitude 486.8 km
Velocity 7.63 km/s
Sub-Earth Point 43.16°N, 99.85°E
Launch Date Dec 4, 2024
Age 0.9 years
Type internet

Technical Details

Classification Payload
Mass 730.00 kg
Dry Mass 700.00 kg
Total Mass 730.00 kg
Length 0.30 m
Diameter 4.10 m
Span 29.00 m
Shape Box + pan
Manufacturer SPXS
Bus Type Starlink V2M
Phase Status In Orbit
Owner/State SPXS/US

Large Constellations

Loading constellations...